Simultaneous Nadir Overpasses (SNOs) Predictions

Prediction of SNOs between METOP-A and NOAA-19 Satellite Orbit:

Table of predicted SNOs for the next 14.0 days since TLE Epoch: 2/11/2017
Index Date (METOP-A) Time (METOP-A) Lat,Lon (METOP-A) SZA (METOP-A ) Date (NOAA-19) Time (NOAA-19) Lat,Lon (NOAA-19) SZA (NOAA-19 ) Distance(km) Time Diff (sec)
1 02/21/2017 08:04:04 -76.91,-117.76 92.72 02/21/2017 08:02:50 -76.94,-117.77 92.69 2.81 74
2 02/21/2017 08:54:44 76.93, 49.62 87.28 02/21/2017 08:53:53 76.92, 49.54 87.28 1.94 51
3 02/21/2017 09:45:26 -76.90,-143.17 92.77 02/21/2017 09:44:51 -76.91,-143.15 92.75 1.70 35
4 02/21/2017 10:36:06 76.91, 24.20 87.24 02/21/2017 10:35:54 76.89, 24.17 87.22 1.83 12
5 02/21/2017 11:26:48 -76.88,-168.59 92.81 02/21/2017 11:26:52 -76.88,-168.52 92.81 1.86 4
6 02/21/2017 12:17:28 76.89, -1.22 87.19 02/21/2017 12:17:55 76.86, -1.20 87.17 3.05 27
7 02/21/2017 13:08:10 -76.86, 165.99 92.86 02/21/2017 13:08:53 -76.85, 166.11 92.86 3.10 43
8 02/21/2017 13:58:50 76.87, -26.64 87.15 02/21/2017 13:59:57 76.87, -26.75 87.15 2.93 67
9 02/21/2017 14:49:40 -76.48, 139.21 93.25 02/21/2017 14:50:47 -76.52, 141.97 93.22 71.71 67




NCC Satellite Simultaneous Nadir Overpasses (SNOs) Prediction Service
